Time,TemperatureF,DewpointF,PressureIn,WindDirection,WindDirectionDegrees,WindSpeedMPH,WindSpeedGustMPH,Humidity,HourlyPrecipIn,Conditions,Clouds,dailyrainin,SoftwareType,DateUTC
2013-02-21 01:55:00,41.4,40.1,30.11,ESE,112,0.0,0.0,95,0.00,,---,0.00,VWS V14.01,2013-02-21 06:55:00,
2013-02-21 02:12:00,41.1,39.8,30.11,ESE,115,0.0,0.0,95,0.00,,---,0.00,VWS V14.01,2013-02-21 07:12:00,
2013-02-21 02:17:00,41.3,40.0,30.11,ESE,116,0.0,0.0,95,0.00,,---,0.00,VWS V14.01,2013-02-21 07:17:00,
2013-02-21 02:22:00,41.2,39.9,30.12,ESE,116,0.0,0.0,95,0.00,,---,0.00,VWS V14.01,2013-02-21 07:22:00,
2013-02-21 02:27:00,41.2,39.9,30.11,ESE,115,0.0,0.0,95,0.00,,---,0.00,VWS V14.01,2013-02-21 07:27:00,
2013-02-21 02:37:00,40.9,39.8,30.11,ESE,115,0.0,0.0,96,0.00,,---,0.00,VWS V14.01,2013-02-21 07:37:00,
2013-02-21 02:42:00,40.8,39.5,30.11,ESE,115,0.0,0.0,95,0.00,,---,0.00,VWS V14.01,2013-02-21 07:42:00,
2013-02-21 02:47:00,40.7,39.4,30.11,ESE,115,0.0,0.0,95,0.00,,---,0.00,VWS V14.01,2013-02-21 07:47:00,
2013-02-21 02:57:00,40.5,39.5,30.11,ESE,115,0.0,0.0,96,0.00,,---,0.00,VWS V14.01,2013-02-21 07:57:00,
2013-02-21 03:02:00,40.2,38.9,30.10,East,96,0.0,0.0,95,0.00,,---,0.00,VWS V14.01,2013-02-21 08:02:00,
2013-02-21 03:07:00,40.1,39.0,30.10,East,96,0.0,0.0,96,0.00,,---,0.00,VWS V14.01,2013-02-21 08:07:00,
2013-02-21 03:12:00,40.2,39.2,30.10,East,96,0.0,0.0,96,0.00,,---,0.00,VWS V14.01,2013-02-21 08:12:00,
2013-02-21 03:17:00,40.1,39.0,30.11,East,96,0.0,0.0,96,0.00,,---,0.00,VWS V14.01,2013-02-21 08:17:00,
2013-02-21 03:22:00,40.1,39.0,30.10,East,96,0.0,0.0,96,0.00,,---,0.00,VWS V14.01,2013-02-21 08:22:00,
2013-02-21 03:32:00,40.4,39.3,30.10,East,96,0.0,0.0,96,0.00,,---,0.00,VWS V14.01,2013-02-21 08:32:00,
2013-02-21 03:37:00,40.5,39.7,30.10,East,96,0.0,0.0,97,0.00,,---,0.00,VWS V14.01,2013-02-21 08:37:00,
2013-02-21 03:42:00,40.6,39.8,30.10,East,96,0.0,0.0,97,0.00,,---,0.00,VWS V14.01,2013-02-21 08:42:00,
2013-02-21 03:47:00,40.7,39.7,30.10,East,96,0.0,0.0,96,0.00,,---,0.00,VWS V14.01,2013-02-21 08:47:00,
2013-02-21 03:57:00,40.5,39.5,30.10,East,96,0.0,0.0,96,0.00,,---,0.00,VWS V14.01,2013-02-21 08:57:00,
2013-02-21 04:02:00,40.1,39.0,30.10,East,96,0.0,0.0,96,0.00,,---,0.00,VWS V14.01,2013-02-21 09:02:00,
2013-02-21 04:12:00,40.3,39.5,30.10,East,96,0.0,0.0,97,0.00,,---,0.00,VWS V14.01,2013-02-21 09:12:00,
2013-02-21 04:17:00,40.4,39.6,30.10,East,96,0.0,0.0,97,0.00,,---,0.00,VWS V14.01,2013-02-21 09:17:00,
2013-02-21 04:22:00,40.7,39.9,30.10,East,96,0.0,0.0,97,0.00,,---,0.00,VWS V14.01,2013-02-21 09:22:00,
2013-02-21 04:32:00,40.8,40.0,30.11,East,96,0.0,0.0,97,0.00,,---,0.00,VWS V14.01,2013-02-21 09:32:00,
2013-02-21 04:37:00,40.8,40.0,30.11,East,96,0.0,0.0,97,0.00,,---,0.00,VWS V14.01,2013-02-21 09:37:00,
2013-02-21 04:42:00,40.5,39.7,30.11,East,96,0.0,0.0,97,0.00,,---,0.00,VWS V14.01,2013-02-21 09:42:00,
2013-02-21 04:47:00,40.3,39.5,30.11,East,96,0.0,0.0,97,0.00,,---,0.00,VWS V14.01,2013-02-21 09:47:00,
2013-02-21 04:52:00,40.2,39.4,30.11,East,96,0.0,0.0,97,0.00,,---,0.00,VWS V14.01,2013-02-21 09:52:00,
2013-02-21 04:57:00,40.1,39.3,30.11,East,96,0.0,0.0,97,0.00,,---,0.00,VWS V14.01,2013-02-21 09:57:00,
2013-02-21 05:02:00,40.3,39.5,30.11,East,96,0.0,0.0,97,0.00,,---,0.00,VWS V14.01,2013-02-21 10:02:00,
2013-02-21 05:12:00,40.3,39.5,30.11,East,96,0.0,0.0,97,0.00,,---,0.00,VWS V14.01,2013-02-21 10:12:00,
2013-02-21 05:17:00,40.2,39.4,30.11,East,96,0.0,0.0,97,0.00,,---,0.00,VWS V14.01,2013-02-21 10:17:00,
2013-02-21 05:22:00,39.9,38.8,30.11,East,96,0.0,0.0,96,0.00,,---,0.00,VWS V14.01,2013-02-21 10:22:00,
2013-02-21 05:27:00,39.9,39.1,30.11,East,96,0.0,0.0,97,0.00,,---,0.00,VWS V14.01,2013-02-21 10:27:00,
2013-02-21 05:32:00,40.2,39.4,30.11,East,96,0.0,0.0,97,0.00,,---,0.00,VWS V14.01,2013-02-21 10:32:00,
2013-02-21 05:37:00,40.3,39.5,30.11,East,96,0.0,0.0,97,0.00,,---,0.00,VWS V14.01,2013-02-21 10:37:00,
2013-02-21 05:42:00,40.2,39.4,30.11,East,96,0.0,0.0,97,0.00,,---,0.00,VWS V14.01,2013-02-21 10:42:00,
2013-02-21 05:52:00,40.1,39.3,30.11,East,96,0.0,0.0,97,0.00,,---,0.00,VWS V14.01,2013-02-21 10:52:00,
2013-02-21 05:57:00,40.0,39.2,30.11,East,96,0.0,0.0,97,0.00,,---,0.00,VWS V14.01,2013-02-21 10:57:00,
2013-02-21 06:02:00,40.0,39.2,30.11,East,96,0.0,0.0,97,0.00,,---,0.00,VWS V14.01,2013-02-21 11:02:00,
2013-02-21 06:12:00,39.9,39.1,30.12,East,96,0.0,0.0,97,0.00,,---,0.00,VWS V14.01,2013-02-21 11:12:00,
2013-02-21 06:17:00,40.0,39.2,30.12,East,96,0.0,0.0,97,0.00,,---,0.00,VWS V14.01,2013-02-21 11:17:00,
2013-02-21 06:22:00,40.0,39.2,30.12,East,96,0.0,0.0,97,0.00,,---,0.00,VWS V14.01,2013-02-21 11:22:00,
2013-02-21 06:27:00,40.0,39.2,30.12,East,96,0.0,0.0,97,0.00,,---,0.00,VWS V14.01,2013-02-21 11:27:00,
2013-02-21 06:32:00,39.9,39.1,30.13,East,96,0.0,0.0,97,0.00,,---,0.00,VWS V14.01,2013-02-21 11:32:00,
2013-02-21 06:37:00,39.7,38.9,30.14,NE,50,0.0,0.0,97,0.00,,---,0.00,VWS V14.01,2013-02-21 11:37:00,
2013-02-21 06:42:00,39.6,38.8,30.13,NNE,19,0.0,0.0,97,0.00,,---,0.00,VWS V14.01,2013-02-21 11:42:00,
2013-02-21 06:47:00,39.5,38.7,30.13,NNE,18,0.0,0.0,97,0.00,,---,0.00,VWS V14.01,2013-02-21 11:47:00,
2013-02-21 06:52:00,39.4,38.6,30.13,NNE,18,0.0,0.0,97,0.00,,---,0.00,VWS V14.01,2013-02-21 11:52:00,
2013-02-21 06:57:00,39.5,38.7,30.14,NE,36,0.0,0.0,97,0.00,,---,0.00,VWS V14.01,2013-02-21 11:57:00,
2013-02-21 07:02:00,39.3,38.5,30.14,NE,36,0.0,0.0,97,0.00,,---,0.00,VWS V14.01,2013-02-21 12:02:00,
2013-02-21 07:07:00,39.3,38.5,30.14,NE,35,0.0,0.0,97,0.00,,---,0.00,VWS V14.01,2013-02-21 12:07:00,
2013-02-21 07:17:00,39.7,38.9,30.15,NE,36,0.0,0.0,97,0.00,,---,0.00,VWS V14.01,2013-02-21 12:17:00,
2013-02-21 07:22:00,39.7,38.9,30.15,NE,36,0.0,0.0,97,0.00,,---,0.00,VWS V14.01,2013-02-21 12:22:00,
2013-02-21 07:32:00,40.7,40.2,30.15,NE,36,0.0,0.0,98,0.00,,---,0.00,VWS V14.01,2013-02-21 12:32:00,
2013-02-21 07:42:00,42.2,41.4,30.16,NE,36,0.0,0.0,97,0.00,,---,0.00,VWS V14.01,2013-02-21 12:42:00,
2013-02-21 07:47:00,42.9,42.4,30.16,NE,36,0.0,0.0,98,0.00,,---,0.00,VWS V14.01,2013-02-21 12:47:00,
2013-02-21 07:57:00,45.5,45.0,30.16,NE,36,0.0,0.0,98,0.00,,---,0.00,VWS V14.01,2013-02-21 12:57:00,
2013-02-21 08:02:00,46.4,45.6,30.16,NE,36,0.0,0.0,97,0.00,,---,0.00,VWS V14.01,2013-02-21 13:02:00,
2013-02-21 08:07:00,45.5,44.2,30.16,NE,36,0.0,0.0,95,0.00,,---,0.00,VWS V14.01,2013-02-21 13:07:00,
2013-02-21 08:12:00,45.3,44.0,30.17,NW,315,1.0,2.0,95,0.00,,---,0.00,VWS V14.01,2013-02-21 13:12:00,
2013-02-21 08:22:00,45.3,44.0,30.17,North,353,1.0,3.0,95,0.00,,---,0.00,VWS V14.01,2013-02-21 13:22:00,
2013-02-21 08:27:00,45.6,44.2,30.17,NNW,348,0.0,2.0,95,0.00,,---,0.00,VWS V14.01,2013-02-21 13:27:00,
2013-02-21 08:37:00,46.5,44.9,30.17,NW,316,1.0,3.0,94,0.00,,---,0.00,VWS V14.01,2013-02-21 13:37:00,
2013-02-21 08:42:00,46.8,44.3,30.17,North,8,3.0,6.0,91,0.00,,---,0.00,VWS V14.01,2013-02-21 13:42:00,
2013-02-21 08:47:00,47.0,43.6,30.17,North,1,4.0,7.0,88,0.00,,---,0.00,VWS V14.01,2013-02-21 13:47:00,
2013-02-21 08:57:00,47.6,43.3,30.17,NNE,18,4.0,5.0,85,0.00,,---,0.00,VWS V14.01,2013-02-21 13:57:00,
2013-02-21 09:02:00,47.8,43.5,30.17,North,8,4.0,6.0,85,0.00,,---,0.00,VWS V14.01,2013-02-21 14:02:00,
2013-02-21 09:07:00,48.1,43.8,30.18,North,354,5.0,7.0,85,0.00,,---,0.00,VWS V14.01,2013-02-21 14:07:00,
2013-02-21 09:12:00,48.5,43.9,30.18,North,3,3.0,5.0,84,0.00,,---,0.00,VWS V14.01,2013-02-21 14:12:00,
2013-02-21 09:17:00,48.7,43.8,30.18,NNE,24,4.0,4.0,83,0.00,,---,0.00,VWS V14.01,2013-02-21 14:17:00,
2013-02-21 09:22:00,49.1,43.8,30.18,NNE,22,2.0,4.0,82,0.00,,---,0.00,VWS V14.01,2013-02-21 14:22:00,
2013-02-21 09:27:00,49.3,43.4,30.18,NNE,20,4.0,4.0,80,0.00,,---,0.00,VWS V14.01,2013-02-21 14:27:00,
2013-02-21 09:32:00,49.7,43.8,30.18,NNE,27,1.0,4.0,80,0.00,,---,0.00,VWS V14.01,2013-02-21 14:32:00,
2013-02-21 09:37:00,50.0,43.8,30.18,NE,43,0.0,1.0,79,0.00,,---,0.00,VWS V14.01,2013-02-21 14:37:00,
2013-02-21 09:47:00,50.8,43.2,30.18,NNE,12,1.0,6.0,75,0.00,,---,0.00,VWS V14.01,2013-02-21 14:47:00,
2013-02-21 09:57:00,51.6,43.2,30.18,North,352,3.0,4.0,73,0.00,,---,0.00,VWS V14.01,2013-02-21 14:57:00,
2013-02-21 10:02:00,52.2,42.3,30.18,NNE,32,3.0,5.0,69,0.00,,---,0.00,VWS V14.01,2013-02-21 15:02:00,
2013-02-21 10:07:00,52.9,43.4,30.18,NE,35,3.0,5.0,70,0.00,,---,0.00,VWS V14.01,2013-02-21 15:07:00,
2013-02-21 10:12:00,53.3,42.6,30.18,NE,42,5.0,6.0,67,0.00,,---,0.00,VWS V14.01,2013-02-21 15:12:00,
2013-02-21 10:17:00,53.6,42.5,30.18,NE,56,2.0,5.0,66,0.00,,---,0.00,VWS V14.01,2013-02-21 15:17:00,
2013-02-21 10:27:00,54.3,43.2,30.18,ENE,78,1.0,4.0,66,0.00,,---,0.00,VWS V14.01,2013-02-21 15:27:00,
2013-02-21 10:32:00,54.7,42.0,30.18,East,93,2.0,2.0,62,0.00,,---,0.00,VWS V14.01,2013-02-21 15:32:00,
2013-02-21 10:37:00,55.3,41.7,30.18,ESE,104,0.0,2.0,60,0.00,,---,0.00,VWS V14.01,2013-02-21 15:37:00,
2013-02-21 10:42:00,55.8,40.4,30.18,SW,236,0.0,1.0,56,0.00,,---,0.00,VWS V14.01,2013-02-21 15:42:00,
2013-02-21 10:52:00,56.8,38.9,30.18,NW,319,0.0,0.0,51,0.00,,---,0.00,VWS V14.01,2013-02-21 15:52:00,
2013-02-21 10:57:00,57.2,39.8,30.18,North,8,1.0,2.0,52,0.00,,---,0.00,VWS V14.01,2013-02-21 15:57:00,
2013-02-21 11:02:00,57.4,39.4,30.18,NNE,17,0.0,2.0,51,0.00,,---,0.00,VWS V14.01,2013-02-21 16:02:00,
2013-02-21 11:12:00,57.8,40.8,30.18,ENE,61,0.0,3.0,53,0.00,,---,0.00,VWS V14.01,2013-02-21 16:12:00,
2013-02-21 11:17:00,58.7,42.1,30.18,West,262,4.0,4.0,54,0.00,,---,0.00,VWS V14.01,2013-02-21 16:17:00,
2013-02-21 11:22:00,59.3,42.7,30.18,SW,225,0.0,6.0,54,0.00,,---,0.00,VWS V14.01,2013-02-21 16:22:00,
2013-02-21 11:27:00,59.8,42.2,30.18,WSW,252,3.0,5.0,52,0.00,,---,0.00,VWS V14.01,2013-02-21 16:27:00,
2013-02-21 11:32:00,60.0,43.8,30.18,West,264,5.0,6.0,55,0.00,,---,0.00,VWS V14.01,2013-02-21 16:32:00,
2013-02-21 11:37:00,59.8,44.5,30.18,South,180,4.0,7.0,57,0.00,,---,0.00,VWS V14.01,2013-02-21 16:37:00,
2013-02-21 11:47:00,59.0,44.3,30.18,SSE,160,6.0,8.0,58,0.00,,---,0.00,VWS V14.01,2013-02-21 16:47:00,
2013-02-21 11:52:00,58.3,43.6,30.18,SSE,150,6.0,7.0,58,0.00,,---,0.00,VWS V14.01,2013-02-21 16:52:00,
2013-02-21 12:02:00,58.1,43.0,30.17,SE,126,3.0,7.0,57,0.00,,---,0.00,VWS V14.01,2013-02-21 17:02:00,
2013-02-21 12:12:00,58.1,42.5,30.17,SSE,149,6.0,9.0,56,0.00,,---,0.00,VWS V14.01,2013-02-21 17:12:00,
2013-02-21 12:22:00,57.3,43.1,30.17,ESE,111,4.0,8.0,59,0.00,,---,0.00,VWS V14.01,2013-02-21 17:22:00,
2013-02-21 12:27:00,57.1,42.0,30.16,ESE,103,4.0,7.0,57,0.00,,---,0.00,VWS V14.01,2013-02-21 17:27:00,
2013-02-21 12:32:00,57.0,43.3,30.16,ESE,109,3.0,8.0,60,0.00,,---,0.00,VWS V14.01,2013-02-21 17:32:00,
2013-02-21 12:42:00,57.1,41.6,30.16,South,185,4.0,6.0,56,0.00,,---,0.00,VWS V14.01,2013-02-21 17:42:00,
2013-02-21 12:47:00,57.4,41.4,30.16,SSW,210,2.0,7.0,55,0.00,,---,0.00,VWS V14.01,2013-02-21 17:47:00,
2013-02-21 12:52:00,57.4,44.1,30.15,East,99,6.0,9.0,61,0.00,,---,0.00,VWS V14.01,2013-02-21 17:52:00,
2013-02-21 12:57:00,57.4,43.6,30.15,ESE,117,6.0,8.0,60,0.00,,---,0.00,VWS V14.01,2013-02-21 17:57:00,
2013-02-21 13:02:00,57.2,41.7,30.15,ESE,105,2.0,8.0,56,0.00,,---,0.00,VWS V14.01,2013-02-21 18:02:00,
2013-02-21 13:07:00,57.4,42.3,30.15,ESE,118,6.0,7.0,57,0.00,,---,0.00,VWS V14.01,2013-02-21 18:07:00,
2013-02-21 13:17:00,57.6,41.1,30.14,SE,126,6.0,7.0,54,0.00,,---,0.00,VWS V14.01,2013-02-21 18:17:00,
2013-02-21 13:22:00,57.7,41.2,30.14,East,94,5.0,9.0,54,0.00,,---,0.00,VWS V14.01,2013-02-21 18:22:00,
2013-02-21 13:27:00,57.7,41.7,30.14,East,83,4.0,10.0,55,0.00,,---,0.00,VWS V14.01,2013-02-21 18:27:00,
2013-02-21 13:32:00,57.9,43.7,30.13,ESE,103,5.0,9.0,59,0.00,,---,0.00,VWS V14.01,2013-02-21 18:32:00,
2013-02-21 13:42:00,57.7,43.0,30.13,ENE,75,6.0,10.0,58,0.00,,---,0.00,VWS V14.01,2013-02-21 18:42:00,
2013-02-21 13:52:00,57.6,41.1,30.12,SE,127,3.0,9.0,54,0.00,,---,0.00,VWS V14.01,2013-02-21 18:52:00,
2013-02-21 14:02:00,57.9,42.3,30.12,ESE,106,6.0,10.0,56,0.00,,---,0.00,VWS V14.01,2013-02-21 19:02:00,
2013-02-21 14:12:00,57.8,41.8,30.12,ESE,110,9.0,10.0,55,0.00,,---,0.00,VWS V14.01,2013-02-21 19:12:00,
2013-02-21 14:17:00,57.8,42.7,30.12,ENE,74,4.0,9.0,57,0.00,,---,0.00,VWS V14.01,2013-02-21 19:17:00,
2013-02-21 14:22:00,57.7,43.0,30.12,East,97,10.0,10.0,58,0.00,,---,0.00,VWS V14.01,2013-02-21 19:22:00,
2013-02-21 14:27:00,57.3,43.5,30.11,East,100,10.0,12.0,60,0.00,,---,0.00,VWS V14.01,2013-02-21 19:27:00,
2013-02-21 14:37:00,57.1,44.6,30.11,ESE,107,7.0,11.0,63,0.00,,---,0.00,VWS V14.01,2013-02-21 19:37:00,
2013-02-21 14:42:00,56.8,43.9,30.11,East,94,5.0,12.0,62,0.00,,---,0.00,VWS V14.01,2013-02-21 19:42:00,
2013-02-21 14:47:00,56.7,44.3,30.11,SE,124,7.0,11.0,63,0.00,,---,0.00,VWS V14.01,2013-02-21 19:47:00,
2013-02-21 14:52:00,56.4,43.6,30.11,East,97,11.0,11.0,62,0.00,,---,0.00,VWS V14.01,2013-02-21 19:52:00,
2013-02-21 14:57:00,56.3,43.9,30.11,ESE,113,7.0,11.0,63,0.00,,---,0.00,VWS V14.01,2013-02-21 19:57:00,
2013-02-21 15:02:00,56.2,44.2,30.11,ESE,121,9.0,10.0,64,0.00,,---,0.00,VWS V14.01,2013-02-21 20:02:00,
2013-02-21 15:12:00,56.2,44.6,30.11,SE,128,5.0,10.0,65,0.00,,---,0.00,VWS V14.01,2013-02-21 20:12:00,
2013-02-21 15:17:00,56.2,45.8,30.11,East,81,8.0,11.0,68,0.00,,---,0.00,VWS V14.01,2013-02-21 20:17:00,
2013-02-21 15:22:00,56.2,44.6,30.10,East,93,9.0,11.0,65,0.00,,---,0.00,VWS V14.01,2013-02-21 20:22:00,
2013-02-21 15:27:00,56.1,43.7,30.10,SE,130,8.0,10.0,63,0.00,,---,0.00,VWS V14.01,2013-02-21 20:27:00,
2013-02-21 15:32:00,56.1,44.5,30.10,SE,129,5.0,10.0,65,0.00,,---,0.00,VWS V14.01,2013-02-21 20:32:00,
2013-02-21 15:42:00,56.2,43.8,30.10,SE,127,7.0,10.0,63,0.00,,---,0.00,VWS V14.01,2013-02-21 20:42:00,
2013-02-21 15:47:00,56.0,44.8,30.09,ESE,114,7.0,11.0,66,0.00,,---,0.00,VWS V14.01,2013-02-21 20:47:00,
2013-02-21 15:57:00,55.6,45.2,30.10,East,98,8.0,11.0,68,0.00,,---,0.00,VWS V14.01,2013-02-21 20:57:00,
2013-02-21 16:02:00,55.5,44.7,30.10,East,101,10.0,10.0,67,0.00,,---,0.00,VWS V14.01,2013-02-21 21:02:00,
2013-02-21 16:12:00,55.8,46.2,30.10,SE,124,7.0,11.0,70,0.00,,---,0.00,VWS V14.01,2013-02-21 21:12:00,
2013-02-21 16:17:00,55.7,46.5,30.10,East,90,7.0,9.0,71,0.00,,---,0.00,VWS V14.01,2013-02-21 21:17:00,
2013-02-21 16:22:00,55.8,46.5,30.10,East,98,7.0,10.0,71,0.00,,---,0.00,VWS V14.01,2013-02-21 21:22:00,
2013-02-21 16:27:00,55.8,46.2,30.10,ENE,78,6.0,10.0,70,0.00,,---,0.00,VWS V14.01,2013-02-21 21:27:00,
2013-02-21 16:32:00,55.5,45.9,30.10,ENE,71,7.0,11.0,70,0.00,,---,0.00,VWS V14.01,2013-02-21 21:32:00,
2013-02-21 16:37:00,55.3,46.1,30.10,East,91,5.0,9.0,71,0.00,,---,0.00,VWS V14.01,2013-02-21 21:37:00,
2013-02-21 16:47:00,54.9,46.1,30.10,ESE,104,8.0,10.0,72,0.00,,---,0.00,VWS V14.01,2013-02-21 21:47:00,
2013-02-21 16:52:00,54.7,46.2,30.10,SE,127,6.0,9.0,73,0.00,,---,0.00,VWS V14.01,2013-02-21 21:52:00,
2013-02-21 17:02:00,54.7,47.3,30.10,ESE,120,5.0,8.0,76,0.00,,---,0.00,VWS V14.01,2013-02-21 22:02:00,
2013-02-21 17:07:00,54.6,47.2,30.10,East,84,9.0,10.0,76,0.00,,---,0.00,VWS V14.01,2013-02-21 22:07:00,
2013-02-21 17:17:00,54.2,46.8,30.11,East,98,6.0,9.0,76,0.00,,---,0.00,VWS V14.01,2013-02-21 22:17:00,
2013-02-21 17:22:00,54.1,46.7,30.11,ESE,102,6.0,9.0,76,0.00,,---,0.00,VWS V14.01,2013-02-21 22:22:00,
2013-02-21 17:27:00,54.0,47.0,30.11,East,91,7.0,9.0,77,0.00,,---,0.00,VWS V14.01,2013-02-21 22:27:00,
2013-02-21 17:37:00,53.7,47.0,30.10,East,86,8.0,8.0,78,0.00,,---,0.00,VWS V14.01,2013-02-21 22:37:00,
2013-02-21 17:42:00,53.6,47.3,30.11,ENE,78,5.0,10.0,79,0.00,,---,0.00,VWS V14.01,2013-02-21 22:42:00,
2013-02-21 17:52:00,53.3,47.6,30.11,ESE,103,1.0,5.0,81,0.00,,---,0.00,VWS V14.01,2013-02-21 22:52:00,
2013-02-21 17:57:00,53.2,47.9,30.11,East,82,3.0,6.0,82,0.00,,---,0.00,VWS V14.01,2013-02-21 22:57:00,
2013-02-21 18:02:00,53.0,47.7,30.11,ENE,76,3.0,5.0,82,0.00,,---,0.00,VWS V14.01,2013-02-21 23:02:00,
2013-02-21 18:12:00,52.8,47.8,30.11,ENE,76,1.0,3.0,83,0.00,,---,0.00,VWS V14.01,2013-02-21 23:12:00,
2013-02-21 18:17:00,52.6,47.9,30.11,East,79,2.0,4.0,84,0.00,,---,0.00,VWS V14.01,2013-02-21 23:17:00,
2013-02-21 18:22:00,52.5,47.8,30.11,ESE,104,2.0,4.0,84,0.00,,---,0.00,VWS V14.01,2013-02-21 23:22:00,
2013-02-21 18:27:00,52.3,47.9,30.11,East,82,0.0,3.0,85,0.00,,---,0.00,VWS V14.01,2013-02-21 23:27:00,
2013-02-21 18:32:00,52.2,47.8,30.11,East,98,0.0,2.0,85,0.00,,---,0.00,VWS V14.01,2013-02-21 23:32:00,
2013-02-21 18:37:00,52.0,47.6,30.11,ESE,105,0.0,2.0,85,0.00,,---,0.00,VWS V14.01,2013-02-21 23:37:00,
2013-02-21 18:42:00,51.9,47.5,30.11,East,95,1.0,2.0,85,0.00,,---,0.00,VWS V14.01,2013-02-21 23:42:00,
2013-02-21 18:47:00,51.8,47.8,30.11,East,91,0.0,1.0,86,0.00,,---,0.00,VWS V14.01,2013-02-21 23:47:00,
2013-02-21 18:52:00,51.7,48.0,30.11,East,97,0.0,1.0,87,0.00,,---,0.00,VWS V14.01,2013-02-21 23:52:00,
2013-02-21 19:02:00,51.6,47.9,30.11,ESE,103,0.0,1.0,87,0.00,,---,0.00,VWS V14.01,2013-02-22 00:02:00,
2013-02-21 19:07:00,51.6,47.9,30.11,East,93,1.0,2.0,87,0.00,,---,0.00,VWS V14.01,2013-02-22 00:07:00,
2013-02-21 19:12:00,51.4,48.0,30.11,East,89,0.0,1.0,88,0.00,,---,0.00,VWS V14.01,2013-02-22 00:12:00,
2013-02-21 19:17:00,51.4,48.0,30.11,ESE,103,1.0,2.0,88,0.00,,---,0.00,VWS V14.01,2013-02-22 00:17:00,
2013-02-21 19:22:00,51.4,48.3,30.11,East,86,1.0,2.0,89,0.00,,---,0.00,VWS V14.01,2013-02-22 00:22:00,
2013-02-21 19:27:00,51.4,48.3,30.11,ESE,107,0.0,1.0,89,0.00,,---,0.00,VWS V14.01,2013-02-22 00:27:00,
2013-02-21 19:32:00,51.4,48.3,30.11,East,83,2.0,2.0,89,0.00,,---,0.00,VWS V14.01,2013-02-22 00:32:00,
2013-02-21 19:37:00,51.4,48.3,30.12,East,98,0.0,2.0,89,0.00,,---,0.00,VWS V14.01,2013-02-22 00:37:00,
2013-02-21 19:42:00,51.4,48.6,30.12,East,82,0.0,1.0,90,0.00,,---,0.00,VWS V14.01,2013-02-22 00:42:00,
2013-02-21 19:47:00,51.5,48.7,30.12,East,89,0.0,2.0,90,0.00,,---,0.00,VWS V14.01,2013-02-22 00:47:00,
2013-02-21 19:52:00,51.6,48.8,30.12,ESE,108,0.0,1.0,90,0.00,,---,0.00,VWS V14.01,2013-02-22 00:52:00,
2013-02-21 19:57:00,51.5,48.7,30.12,ENE,76,1.0,2.0,90,0.00,,---,0.00,VWS V14.01,2013-02-22 00:57:00,
2013-02-21 20:02:00,51.6,49.1,30.12,East,84,0.0,2.0,91,0.00,,---,0.00,VWS V14.01,2013-02-22 01:02:00,
2013-02-21 20:12:00,51.7,49.2,30.12,East,100,1.0,3.0,91,0.00,,---,0.00,VWS V14.01,2013-02-22 01:12:00,
2013-02-21 20:17:00,51.8,49.5,30.12,ESE,102,2.0,4.0,92,0.00,,---,0.00,VWS V14.01,2013-02-22 01:17:00,
2013-02-21 20:22:00,52.0,49.8,30.12,East,91,4.0,4.0,92,0.00,,---,0.00,VWS V14.01,2013-02-22 01:22:00,
2013-02-21 20:27:00,51.9,49.4,30.12,East,88,2.0,4.0,91,0.00,,---,0.00,VWS V14.01,2013-02-22 01:27:00,
2013-02-21 20:37:00,52.0,49.8,30.11,East,98,4.0,4.0,92,0.00,,---,0.00,VWS V14.01,2013-02-22 01:37:00,
2013-02-21 20:42:00,52.1,49.8,30.11,East,89,3.0,5.0,92,0.00,,---,0.00,VWS V14.01,2013-02-22 01:42:00,
2013-02-21 20:47:00,52.1,49.8,30.11,East,94,4.0,4.0,92,0.00,,---,0.00,VWS V14.01,2013-02-22 01:47:00,
2013-02-21 20:52:00,52.1,49.8,30.11,East,91,5.0,5.0,92,0.00,,---,0.00,VWS V14.01,2013-02-22 01:52:00,
2013-02-21 21:02:00,52.4,50.4,30.11,East,91,4.0,7.0,93,0.00,,---,0.00,VWS V14.01,2013-02-22 02:02:00,
2013-02-21 21:07:00,52.6,50.6,30.11,East,100,4.0,7.0,93,0.00,,---,0.00,VWS V14.01,2013-02-22 02:07:00,
2013-02-21 21:12:00,52.8,50.8,30.12,East,89,3.0,5.0,93,0.00,,---,0.00,VWS V14.01,2013-02-22 02:12:00,
2013-02-21 21:17:00,52.9,50.9,30.13,ENE,61,3.0,7.0,93,0.00,,---,0.00,VWS V14.01,2013-02-22 02:17:00,
2013-02-21 21:22:00,52.9,50.9,30.13,ENE,63,3.0,4.0,93,0.00,,---,0.00,VWS V14.01,2013-02-22 02:22:00,
2013-02-21 21:27:00,52.9,50.6,30.13,ENE,70,2.0,5.0,92,0.00,,---,0.00,VWS V14.01,2013-02-22 02:27:00,
2013-02-21 21:37:00,52.8,50.8,30.13,East,86,4.0,5.0,93,0.00,,---,0.00,VWS V14.01,2013-02-22 02:37:00,
2013-02-21 21:42:00,52.9,50.9,30.13,East,98,5.0,6.0,93,0.00,,---,0.00,VWS V14.01,2013-02-22 02:42:00,
2013-02-21 21:47:00,53.1,51.1,30.14,East,88,5.0,6.0,93,0.00,,---,0.00,VWS V14.01,2013-02-22 02:47:00,
2013-02-21 21:52:00,53.2,51.2,30.14,East,81,2.0,6.0,93,0.00,,---,0.00,VWS V14.01,2013-02-22 02:52:00,
2013-02-21 21:57:00,53.2,51.2,30.14,NE,51,4.0,4.0,93,0.00,,---,0.00,VWS V14.01,2013-02-22 02:57:00,
2013-02-21 22:02:00,53.2,51.2,30.13,ENE,62,3.0,5.0,93,0.00,,---,0.00,VWS V14.01,2013-02-22 03:02:00,
2013-02-21 22:12:00,53.1,51.1,30.13,ENE,72,2.0,7.0,93,0.00,,---,0.00,VWS V14.01,2013-02-22 03:12:00,
2013-02-21 22:17:00,53.1,51.1,30.13,ENE,77,6.0,7.0,93,0.00,,---,0.00,VWS V14.01,2013-02-22 03:17:00,
2013-02-21 22:22:00,53.3,51.3,30.14,ENE,76,5.0,7.0,93,0.00,,---,0.00,VWS V14.01,2013-02-22 03:22:00,
2013-02-21 22:27:00,53.4,51.4,30.14,ENE,70,4.0,7.0,93,0.00,,---,0.00,VWS V14.01,2013-02-22 03:27:00,
2013-02-21 22:32:00,53.6,51.6,30.14,East,89,3.0,7.0,93,0.00,,---,0.00,VWS V14.01,2013-02-22 03:32:00,
2013-02-21 22:37:00,53.8,51.8,30.14,East,92,4.0,7.0,93,0.00,,---,0.00,VWS V14.01,2013-02-22 03:37:00,
2013-02-21 22:42:00,53.9,51.9,30.14,ENE,70,5.0,9.0,93,0.00,,---,0.00,VWS V14.01,2013-02-22 03:42:00,
2013-02-21 22:52:00,54.1,51.8,30.14,ENE,70,4.0,7.0,92,0.00,,---,0.00,VWS V14.01,2013-02-22 03:52:00,
2013-02-21 22:57:00,54.2,52.2,30.14,East,86,6.0,9.0,93,0.00,,---,0.00,VWS V14.01,2013-02-22 03:57:00,
2013-02-21 23:02:00,54.5,52.2,30.14,ENE,76,6.0,9.0,92,0.00,,---,0.00,VWS V14.01,2013-02-22 04:02:00,
2013-02-21 23:07:00,54.7,52.1,30.14,East,94,7.0,10.0,91,0.00,,---,0.00,VWS V14.01,2013-02-22 04:07:00,
2013-02-21 23:12:00,54.9,52.3,30.14,ENE,58,3.0,11.0,91,0.00,,---,0.00,VWS V14.01,2013-02-22 04:12:00,
2013-02-21 23:17:00,55.0,52.4,30.14,ENE,61,6.0,10.0,91,0.00,,---,0.00,VWS V14.01,2013-02-22 04:17:00,
2013-02-21 23:22:00,55.0,52.4,30.14,ENE,74,4.0,11.0,91,0.00,,---,0.00,VWS V14.01,2013-02-22 04:22:00,
2013-02-21 23:32:00,55.2,52.3,30.14,ENE,76,4.0,10.0,90,0.00,,---,0.00,VWS V14.01,2013-02-22 04:32:00,
2013-02-21 23:37:00,55.1,52.2,30.14,ENE,69,4.0,8.0,90,0.00,,---,0.00,VWS V14.01,2013-02-22 04:37:00,
2013-02-21 23:42:00,55.1,52.2,30.14,ENE,59,5.0,9.0,90,0.00,,---,0.00,VWS V14.01,2013-02-22 04:42:00,
2013-02-21 23:47:00,55.2,52.3,30.14,NE,51,7.0,11.0,90,0.00,,---,0.00,VWS V14.01,2013-02-22 04:47:00,
2013-02-21 23:52:00,55.1,52.2,30.14,NE,53,4.0,8.0,90,0.00,,---,0.00,VWS V14.01,2013-02-22 04:52:00,
2013-02-21 23:57:00,55.0,52.1,30.14,ENE,68,7.0,8.0,90,0.00,,---,0.00,VWS V14.01,2013-02-22 04:57:00,